Home   Weather   Chalon-sur-Saône   Past weeks

Flag for France Past Weather in Chalon-sur-Saône, Burgundy, France — Yesterday and Last 2 Weeks

Now
64 °F

Passing clouds.


Feels Like: 64 °F
Forecast: 55 / 64 °F
Wind: 13 mph from South

Location: Dole Tavaux

Current Time: Sep 30, 2016 at 3:32:23 AM

Latest Report: Sep 30, 2016 at 3:00 AM


Visibility: N/A

Pressure: 30.07 "Hg

Humidity: 60%

Dew Point: 50 °F

Location of Chalon-sur-SaôneLocation

Past Weather in Chalon-sur-Saône — Graph

°F

Chalon-sur-Saône Temperature Yesterday

Maximum temperature yesterday: 79 °F (at 4:00 PM)
Minimum temperature yesterday: 50 °F (at 4:00 AM)
Average temperature yesterday: 63 °F

High & Low Weather Summary for the Past Weeks

 TemperatureHumidityPressure
High79 °F (Sep 29, 4:00 PM)100% (Sep 15, 8:30 AM)30.45 "Hg (Sep 15, 8:30 AM)
Low46 °F (Sep 22, 5:30 AM)42% (Sep 29, 4:00 PM)29.80 "Hg (Sep 15, 2:00 AM)
Average60 °F81%30.13 "Hg
* Reported Sep 15 2:00 AM — Sep 30 2:30 AM, Chalon-sur-Saône, Weather by CustomWeather, © 2016

Note: Actual official high and low records may vary slightly from our data, if they occured in-between our weather recording intervals... More about our weather records

Advertising

Chalon-sur-Saône Weather History for the Previous 24 Hours

Scroll right to see more
 ConditionsComfort  
Time TempWeatherWind HumidityBarometerVisibility
2:30 AM
Fri, Sep 30
64 °FPassing clouds.12 mph60%30.09 "HgN/A
2:00 AM64 °FPassing clouds.12 mph64%30.09 "HgN/A
1:30 AM64 °FPassing clouds.13 mph64%30.09 "HgN/A
1:00 AM64 °FPassing clouds.12 mph64%30.09 "HgN/A
12:30 AM64 °FPassing clouds.12 mph64%30.09 "HgN/A
12:00 AM66 °FPassing clouds.13 mph60%30.09 "HgN/A
11:30 PM
Thu, Sep 29
64 °FPassing clouds.12 mph60%30.09 "HgN/A
11:00 PM64 °FPassing clouds.10 mph56%30.09 "HgN/A
10:30 PM66 °FPassing clouds.12 mph52%30.09 "HgN/A
10:00 PM66 °FPassing clouds.10 mph52%30.09 "HgN/A
9:30 PM66 °FPassing clouds.10 mph52%30.09 "HgN/A
9:00 PM68 °FPassing clouds.9 mph53%30.09 "HgN/A
8:30 PM68 °FPassing clouds.8 mph53%30.09 "HgN/A
8:00 PM66 °FPassing clouds.8 mph60%30.09 "HgN/A
7:30 PM68 °FPassing clouds.7 mph56%30.09 "HgN/A
7:00 PM73 °FPassing clouds.6 mph47%30.09 "HgN/A
6:30 PM75 °FPassing clouds.8 mph47%30.12 "HgN/A
6:00 PM77 °FPassing clouds.12 mph44%30.12 "HgN/A
5:30 PM77 °FPassing clouds.13 mph47%30.12 "HgN/A
5:00 PM77 °FPassing clouds.13 mph47%30.12 "HgN/A
4:30 PM77 °FPassing clouds.13 mph47%30.15 "HgN/A
4:00 PM79 °FPassing clouds.13 mph42%30.15 "HgN/A
3:30 PM77 °FPassing clouds.13 mph44%30.15 "HgN/A
3:00 PM77 °FPassing clouds.12 mph44%30.18 "HgN/A
2:30 PM75 °FPassing clouds.10 mph47%30.18 "HgN/A
2:00 PM75 °FPassing clouds.10 mph50%30.21 "HgN/A
1:30 PM73 °FPassing clouds.10 mph53%30.21 "HgN/A
1:00 PM73 °FPassing clouds.12 mph57%30.24 "HgN/A
12:30 PM72 °FPassing clouds.12 mph61%30.24 "HgN/A
12:00 PM70 °FPassing clouds.12 mph64%30.24 "HgN/A
11:30 AM68 °FPassing clouds.13 mph69%30.27 "HgN/A
11:00 AM66 °FClear.9 mph73%30.27 "Hg6 mi
10:30 AM64 °FClear.10 mph78%30.27 "Hg6 mi
10:00 AM63 °FClear.12 mph77%30.27 "Hg6 mi
9:30 AM57 °FClear.3 mph94%30.27 "Hg6 mi
9:00 AM55 °FSunny.2 mph94%30.27 "Hg10 mi
8:30 AM52 °FClear.2 mph94%30.27 "Hg6 mi
8:00 AM50 °FClear.2 mph94%30.27 "HgN/A
7:30 AM50 °FClear.2 mph94%30.30 "Hg6 mi
7:00 AM50 °FClear.3 mph94%30.30 "Hg5 mi
6:30 AM50 °FClear.3 mph94%30.30 "Hg6 mi
6:00 AM50 °FClear.5 mph94%30.30 "Hg5 mi
5:30 AM50 °FClear.5 mph94%30.30 "Hg5 mi
5:00 AM50 °FClear.5 mph100%30.33 "Hg4 mi
4:30 AM50 °FFog.3 mph100%30.33 "Hg1 mi
4:00 AM50 °FLight fog.3 mph100%30.33 "Hg1 mi
3:30 AM52 °FClear.3 mph94%30.33 "Hg4 mi
3:00 AM52 °FClear.5 mph100%30.33 "Hg4 mi
Weather by CustomWeather, © 2016

See weather overviewHow to use our weather pages